Weather History for Ainsworth, NE

Change the Weather History Date:

Saturday, January 19, 2013

  Actual Average Record
Temperature  
Mean Temperature 34 °F -  
Max Temperature 50 °F 33 °F 61 °F (2014)
Min Temperature 18 °F 13 °F -13 °F (2001)
Degree Days  
Heating Degree Days 31    
Moisture  
Dew Point 21 °F    
Average Humidity 54    
Maximum Humidity 82    
Minimum Humidity 33    
Precipitation  
Precipitation 0.00 in - - ()
Sea Level Pressure  
Sea Level Pressure 30.08 in    
Wind  
Wind Speed 12 mph (NW)    
Max Wind Speed 24 mph    
Max Gust Speed 32 mph    
Visibility 10 miles    
Events      
Averages and records for this station are not official NWS values.
T = Trace of Precipitation, MM = Missing Value Source: NWS Daily Summary

Daily Weather History Graph

Daily Weather History Graph

Search for Another Location

Airport:

Trip Planner

Search our weather history database for the weather conditions in past years. The results will help you decide how hot, cold, wet, or windy it might be!

Date:

Astronomy

Jan. 19, 2013 Rise Set
Actual Time 8:04 AM CST 5:37 PM CST
Civil Twilight 7:33 AM CST 6:08 PM CST
Nautical Twilight 6:59 AM CST 6:42 PM CST
Astronomical Twilight 6:25 AM CST 7:16 PM CST
Moon 12:05 PM CST (1/19) 1:38 AM CST (1/19)
Length of Visible Light 10h 34m
Length of Day
9h 32m
First Quarter, 57% of the Moon is Illuminated
Jan 19
First Quarter
Jan 26
Full
Feb 3
Last Quarter
Feb 10
New
Feb 17
First Quarter

Hourly Weather History & Observations

Time (CST) Temp. Windchill Dew Point Humidity Pressure Visibility Wind Dir Wind Speed Gust Speed Precip Events Conditions
12:15 AM 38.7 °F 32.9 °F 24.4 °F 57% 29.86 in 10.0 mi West 8.1 mph - N/A   Clear
12:35 AM 39.2 °F 33.0 °F 24.6 °F 56% 29.87 in 10.0 mi West 9.2 mph - N/A   Clear
12:55 AM 38.3 °F 32.5 °F 24.6 °F 58% 29.87 in 10.0 mi West 8.1 mph - N/A   Scattered Clouds
1:15 AM 38.5 °F 31.6 °F 24.6 °F 58% 29.87 in 10.0 mi West 10.4 mph - N/A   Mostly Cloudy
1:35 AM 40.1 °F 33.6 °F 23.7 °F 52% 29.88 in 10.0 mi WNW 10.4 mph - N/A   Scattered Clouds
1:55 AM 40.1 °F 32.7 °F 23.7 °F 52% 29.89 in 10.0 mi West 12.7 mph - N/A   Clear
2:15 AM 40.8 °F 33.7 °F 23.4 °F 50% 29.89 in 10.0 mi West 12.7 mph - N/A   Clear
2:35 AM 40.6 °F 34.3 °F 23.0 °F 49% 29.88 in 10.0 mi West 10.4 mph - N/A   Clear
2:55 AM 40.3 °F 32.6 °F 23.4 °F 51% 29.88 in 10.0 mi West 13.8 mph - N/A   Mostly Cloudy
3:15 AM 40.6 °F 33.8 °F 23.0 °F 49% 29.90 in 10.0 mi WNW 11.5 mph - N/A   Overcast
3:35 AM 41.4 °F 35.2 °F 22.8 °F 48% 29.89 in 10.0 mi West 10.4 mph - N/A   Mostly Cloudy
3:55 AM 39.4 °F 32.7 °F 22.6 °F 51% 29.89 in 10.0 mi West 10.4 mph - N/A   Scattered Clouds
4:15 AM 37.8 °F 31.8 °F 22.8 °F 55% 29.89 in 10.0 mi West 8.1 mph - N/A   Clear
4:35 AM 36.0 °F 29.0 °F 22.8 °F 59% 29.90 in 10.0 mi West 9.2 mph - N/A   Clear
4:55 AM 36.7 °F 29.4 °F 23.0 °F 58% 29.91 in 10.0 mi West 10.4 mph - N/A   Clear
5:15 AM 36.7 °F 29.9 °F 23.0 °F 58% 29.91 in 10.0 mi West 9.2 mph - N/A   Clear
5:35 AM 36.9 °F 30.1 °F 22.8 °F 57% 29.92 in 10.0 mi West 9.2 mph - N/A   Clear
5:55 AM 38.5 °F 30.7 °F 22.6 °F 53% 29.92 in 10.0 mi West 12.7 mph - N/A   Clear
7:15 AM 36.3 °F 28.9 °F 22.1 °F 56% 29.97 in 10.0 mi West 10.4 mph - N/A   Clear
7:55 AM 33.8 °F 25.8 °F 21.7 °F 61% 29.98 in 10.0 mi West 10.4 mph - N/A   Clear
8:15 AM 32.9 °F 23.7 °F 21.9 °F 64% 29.99 in 10.0 mi WSW 12.7 mph - N/A   Clear
8:35 AM 35.1 °F 26.9 °F 22.3 °F 60% 30.00 in 10.0 mi West 11.5 mph - N/A   Clear
9:35 AM 39.4 °F 31.4 °F 22.6 °F 51% 30.04 in 10.0 mi WNW 13.8 mph 17.3 mph N/A   Clear
9:55 AM 41.0 °F 33.1 °F 22.5 °F 48% 30.05 in 10.0 mi WNW 15.0 mph - N/A   Clear
10:15 AM 43.0 °F 35.4 °F 21.9 °F 43% 30.07 in 10.0 mi WNW 16.1 mph 20.7 mph N/A   Clear
10:35 AM 44.6 °F 37.2 °F 21.4 °F 40% 30.08 in 10.0 mi NW 17.3 mph 20.7 mph N/A   Clear
10:55 AM 45.5 °F 37.6 °F 21.7 °F 39% 30.08 in 10.0 mi NW 20.7 mph 25.3 mph N/A   Clear
11:15 AM 46.0 °F 38.8 °F 21.9 °F 39% 30.09 in 10.0 mi NW 18.4 mph 27.6 mph N/A   Clear
11:35 AM 46.6 °F - 22.1 °F 38% 30.08 in 10.0 mi NW 15.0 mph - N/A   Clear
11:55 AM 47.8 °F - 21.9 °F 36% 30.08 in 10.0 mi NW 16.1 mph 23.0 mph N/A   Clear
12:15 PM 48.6 °F - 21.9 °F 35% 30.08 in 10.0 mi NW 20.7 mph 25.3 mph N/A   Clear
12:35 PM 48.6 °F - 21.6 °F 35% 30.08 in 10.0 mi WNW 18.4 mph 28.8 mph N/A   Clear
12:55 PM 48.7 °F - 21.9 °F 35% 30.09 in 10.0 mi WNW 20.7 mph 28.8 mph N/A   Clear
1:15 PM 50.0 °F - 23.0 °F 35% 30.09 in 10.0 mi NW 23.0 mph 28.8 mph N/A   Clear
1:35 PM 49.6 °F - 22.1 °F 34% 30.09 in 10.0 mi NNW 19.6 mph 25.3 mph N/A   Clear
1:55 PM 49.5 °F - 22.1 °F 34% 30.09 in 10.0 mi NW 20.7 mph 25.3 mph N/A   Clear
2:15 PM 49.5 °F - 21.0 °F 33% 30.09 in 10.0 mi NW 23.0 mph 32.2 mph N/A   Clear
2:35 PM 48.9 °F - 21.2 °F 34% 30.10 in 10.0 mi NW 24.2 mph 29.9 mph N/A   Clear
2:55 PM 48.9 °F - 22.1 °F 35% 30.11 in 10.0 mi NNW 19.6 mph 27.6 mph N/A   Clear
3:15 PM 48.2 °F - 22.6 °F 37% 30.13 in 10.0 mi NNW 23.0 mph 27.6 mph N/A   Clear
3:35 PM 47.3 °F - 21.9 °F 37% 30.14 in 10.0 mi NNW 20.7 mph 26.5 mph N/A   Clear
3:55 PM 46.9 °F - 21.9 °F 37% 30.14 in 10.0 mi NNW 19.6 mph 28.8 mph N/A   Clear
4:15 PM 45.9 °F 38.3 °F 22.6 °F 40% 30.15 in 10.0 mi NNW 19.6 mph 27.6 mph N/A   Clear
4:35 PM 44.8 °F 36.4 °F 22.8 °F 42% 30.16 in 10.0 mi North 21.9 mph - N/A   Clear
4:55 PM 42.4 °F 32.8 °F 23.2 °F 47% 30.17 in 10.0 mi North 24.2 mph 28.8 mph N/A   Clear
5:15 PM 40.1 °F 31.6 °F 23.4 °F 51% 30.18 in 10.0 mi NNW 16.1 mph - N/A   Clear
5:35 PM 39.0 °F 29.9 °F 23.9 °F 55% 30.20 in 10.0 mi North 17.3 mph - N/A   Clear
5:55 PM 36.7 °F 28.4 °F 24.4 °F 61% 30.21 in 10.0 mi NNW 12.7 mph - N/A   Clear
6:15 PM 35.4 °F 27.3 °F 24.4 °F 64% 30.21 in 10.0 mi North 11.5 mph - N/A   Clear
6:35 PM 34.2 °F 27.5 °F 23.0 °F 64% 30.22 in 10.0 mi North 8.1 mph - N/A   Clear
6:55 PM 33.4 °F 23.5 °F 24.8 °F 71% 30.23 in 10.0 mi NNE 15.0 mph 19.6 mph N/A   Clear
7:15 PM 29.7 °F 18.6 °F 23.4 °F 77% 30.24 in 10.0 mi NNE 15.0 mph - N/A   Clear
7:35 PM 26.6 °F 15.2 °F 20.8 °F 79% 30.24 in 10.0 mi North 13.8 mph - N/A   Clear
7:55 PM 25.9 °F 15.3 °F 19.2 °F 76% 30.26 in 10.0 mi North 11.5 mph 17.3 mph N/A   Clear
8:15 PM 24.3 °F 13.9 °F 18.1 °F 77% 30.26 in 10.0 mi North 10.4 mph - N/A   Clear
8:35 PM 23.0 °F 13.1 °F 17.6 °F 80% 30.26 in 10.0 mi North 9.2 mph - N/A   Clear
8:55 PM 22.1 °F 13.7 °F 17.2 °F 82% 30.26 in 10.0 mi North 6.9 mph - N/A   Clear
9:15 PM 22.5 °F 12.4 °F 16.7 °F 79% 30.26 in 10.0 mi North 9.2 mph - N/A   Clear
9:35 PM 22.3 °F 13.0 °F 13.1 °F 68% 30.27 in 10.0 mi North 8.1 mph - N/A   Clear
9:55 PM 22.1 °F 12.0 °F 12.9 °F 68% 30.28 in 10.0 mi North 9.2 mph - N/A   Clear
10:15 PM 21.6 °F 14.0 °F 11.8 °F 66% 30.28 in 10.0 mi NNE 5.8 mph - N/A   Clear
10:35 PM 21.0 °F 11.4 °F 10.9 °F 65% 30.27 in 10.0 mi NNE 8.1 mph - N/A   Clear
10:55 PM 20.1 °F 15.2 °F 10.9 °F 68% 30.27 in 10.0 mi NNE 3.5 mph - N/A   Clear
11:15 PM 18.5 °F - 10.9 °F 72% 30.27 in 10.0 mi Calm Calm - N/A   Clear
11:35 PM 18.5 °F - 10.4 °F 71% 30.26 in 10.0 mi Calm Calm - N/A   Clear
11:55 PM 18.9 °F - 10.4 °F 70% 30.25 in 10.0 mi Calm Calm - N/A   Clear